Location: Kitt Peak
(31.9514°N, 111.6156°W)
Time: 17:23:50
(UTC-07:00)

Hubble Space Telescope - Visible Passes

Search period start: 10 June 2023 00:00
Search period end: 20 June 2023 00:00
Orbit: 525 x 528 km, 28.5° (Epoch: 10 June)

Date Brightness Start Highest point End Pass type
(mag) Time Alt. Az. Time Alt. Az. Time Alt. Az.
14 Jun 2.8 04:41:11 10° SSW 04:43:39 16° SSE 04:46:06 10° ESE visible
15 Jun 2.6 04:26:19 11° SSW 04:29:00 18° SSE 04:31:51 10° ESE visible
16 Jun 2.3 04:12:25 15° SSW 04:14:22 22° SSE 04:17:30 10° ESE visible
17 Jun 2.1 03:58:29 21° S 03:59:44 25° SSE 04:03:04 10° ESE visible
18 Jun 1.8 03:44:32 27° S 03:45:05 28° SSE 03:48:35 10° ESE visible
19 Jun 1.7 03:30:35 32° SSE 03:30:35 32° SSE 03:34:04 10° ESE visible
